Regional Weather Roundup
Issued by NWS

Home | Current Version | Previous Version | Graphics & Text | Print | Product List | Glossary Off
Versions: 1 2 3 4 5 6 7 8 9 10 11 12 13 14 15 16 17 18 19 20 21 22 23 24 25 26 27 28 29 30 31 32 33 34 35 36 37 38 39 40 41 42 43 44 45 46 47 48 49 50

877
ASUS43 KTOP 260908
RWRKS

WEATHER ROUNDUP FOR KANSAS
NATIONAL WEATHER SERVICE GOODLAND KS
300 AM CST SUN FEB 26 2017

NOTE:  "FAIR" INDICATES FEW OR NO CLOUDS BELOW 12,000 FEET WITH NO
SIGNIFICANT WEATHER AND/OR OBSTRUCTIONS TO VISIBILITY.

KSZ001>006-013>018-027>032-041>047-261000-
NORTHWEST KANSAS

CITY           SKY/WX    TMP DP  RH WIND       PRES   REMARKS
GOODLAND       CLEAR     11   5  77 W5        29.84S
HAYS           MOCLDY    28  17  63 E7        29.90F
HILL CITY      CLEAR     20  12  71 N8        29.89R
RUSSELL        CLOUDY    30  17  58 NE3       29.91R
$$

KSZ061>065-074>080-084>089-261000-
SOUTHWEST KANSAS

CITY           SKY/WX    TMP DP  RH WIND       PRES   REMARKS
DODGE CITY     PTCLDY    31  16  54 S17       29.86S WCI  19
ELKHART          N/A     29   5  36 W6          N/A
GARDEN CITY    PTCLDY    23  12  62 E8        29.82F
GREAT BEND     PTCLDY    34  17  50 S9        29.90S
LIBERAL        CLOUDY    30  12  47 W6        29.83S
PRATT          CLOUDY    29  15  54 S6        29.91F
$$

KSZ066>073-081>083-090>101-261000-
SOUTHEAST KANSAS

CITY           SKY/WX    TMP DP  RH WIND       PRES   REMARKS
CHANUTE        MOCLDY    34  18  52 SE7       30.00F
COFFEYVILLE    MOCLDY    29  21  72 CALM      30.02F
HUTCHINSON     CLOUDY    34  21  59 SE3       29.94F
MEDICINE LODGE   N/A     33  19  56 CALM      29.92S
NEWTON         MIX PCPN  36  21  54 S14       29.97R WCI  27
PARSONS        MOCLDY    37  17  44 VRB3      30.01F
WICHITA INTL   CLOUDY    35  20  54 SE5       29.96R
WICHITA JABRA  CLOUDY    35  19  52 SE3       29.97R
WICHITA MCCONL CLOUDY    35  17  48 SE6       29.96R
WINFIELD       MOCLDY    36  21  54 SE6       29.96F
$$

KSZ007>012-019>026-033>040-048>060-102>105-261000-
NORTHEAST KANSAS

CITY           SKY/WX    TMP DP  RH WIND       PRES   REMARKS
CONCORDIA      CLOUDY    35  17  47 SW10      29.93F WCI  27
EMPORIA        CLOUDY    34  18  52 S13       29.98R WCI  25
LAWRENCE       PTCLDY    34  15  46 SE6       29.99S
MANHATTAN      CLOUDY    32  20  61 CALM      29.97F
MARYSVILLE     MOCLDY    32  19  59 S6        29.94F
OLATHE IND     CLOUDY    31  15  52 S9        29.99F
OLATHE EXE     PTCLDY    31  15  52 S9        29.99F
SALINA         CLOUDY    39  17  41 S7        29.95S
TOPEKA BILLARD CLOUDY    36  16  44 W5        29.98S
TOPEKA FORBES  CLOUDY    34  16  47 S10G18    29.97F WCI  26
$$




USA.gov is the U.S. government's official web portal to all federal, state and local government web resources and services.